Location: Unspecified
(0.0000°N, 0.0000°E)
Time: 04:36:53
(UTC+00:00)

Vanguard 3 - Visible Passes

Search period start: 21 May 2026 00:00
Search period end: 31 May 2026 00:00
Orbit: 507 x 3205 km, 33.4° (Epoch: 20 May)

Date Brightness Start Highest point End Pass type
(mag) Time Alt. Az. Time Alt. Az. Time Alt. Az.
21 May 8.3 19:50:35 10° NW 20:05:08 87° NE 20:07:18 61° ESE visible
21 May 10.6 22:10:04 10° W 22:11:13 12° W 22:11:13 12° W visible
22 May 9.5 18:25:01 10° NW 18:41:28 55° NNE 18:50:16 15° ESE visible
22 May 9.0 20:42:25 10° WNW 20:54:11 49° SW 20:54:11 49° SW visible
23 May 8.9 19:15:58 10° NW 19:32:04 89° NE 19:37:10 35° SE visible
23 May 10.2 21:35:56 10° W 21:41:04 20° WSW 21:41:04 20° WSW visible
24 May 8.9 20:07:57 10° WNW 20:21:51 52° SW 20:24:04 45° S visible
25 May 9.1 05:13:04 10° S 05:16:27 18° SE 05:20:55 10° E visible
25 May 9.2 18:41:18 10° NW 18:58:46 89° SW 19:07:03 20° SE visible
25 May 9.9 21:01:35 10° W 21:10:57 25° SW 21:10:57 25° SW visible
26 May 9.3 19:33:20 10° WNW 19:48:44 53° SW 19:53:56 31° SSE visible
27 May 9.0 04:41:24 10° S 04:44:09 16° SE 04:47:33 10° E visible
27 May 9.6 18:06:38 10° NW 18:25:14 88° SW 18:36:39 10° SE visible
27 May 9.8 20:27:04 10° W 20:38:21 28° SW 20:40:50 26° SSW visible
28 May 7.9 05:28:43 10° SW 05:33:04 49° SE 05:39:59 10° ENE visible
28 May 9.7 18:58:41 10° WNW 19:15:23 54° SW 19:23:48 18° SSE visible
28 May 10.5 21:24:04 10° WSW 21:27:42 12° SW 21:27:42 12° SW visible
29 May 8.8 04:10:48 13° SSE 04:11:54 14° SE 04:14:28 10° ESE visible
29 May 9.9 19:52:26 10° W 20:05:16 30° SW 20:10:40 21° S visible
30 May 7.5 04:57:44 16° SSW 05:00:51 49° SE 05:06:43 10° ENE visible
30 May 10.0 18:24:02 10° WNW 18:41:50 55° SW 18:53:18 10° SE visible
30 May 10.4 20:49:04 10° WSW 20:55:27 15° SW 20:57:31 14° SSW visible
